Location: Strawberry
(45.6646°N, 111.9596°W)
Time: 21:32:58
(UTC+00:00)

Vanguard 1 Rocket - Pass Details

Date: 06 October 2022
Orbit: 650 x 4225 km, 34.3° (Epoch: 01 December)

Event Time Altitude Azimuth Distance (km) Brightness Sun altitude
Rises 03:52:13 0° 251° (WSW) 8,159 12.8 -30.1°
Reaches altitude 10° 03:58:33 10° 248° (WSW) 6,777 12.2 -31.1°
Maximum altitude 04:17:26 51° 181° (S) 2,852 9.5 -34.0°
Enters shadow 04:18:49 50° 164° (SSE) 2,758 9.4 -34.2°
Drops below altitude 10° 04:27:28 10° 108° (ESE) 3,782 - -35.4°
Sets 04:29:57 0° 103° (ESE) 4,439 - -35.8°
